Regional Weather Roundup
Issued by NWS Upton, NY

Current Version | Previous Version | Text Only | Print | Product List | Glossary On
Versions: 1 2 3 4 5 6 7 8 9 10 11 12 13 14 15 16 17 18 19 20 21 22 23 24 25 26 27 28 29 30 31 32 33 34 35 36 37 38 39 40 41 42 43 44 45 46 47 48 49 50
000 ASUS41 KOKX 261905 RWROKX REGIONAL WEATHER ROUNDUP NATIONAL WEATHER SERVICE NEW YORK NY 200 PM EST THU FEB 26 2015 NOTE: "FAIR" INDICATES FEW OR NO CLOUDS BELOW 12,000 FEET WITH NO SIGNIFICANT WEATHER AND/OR OBSTRUCTIONS TO VISIBILITY. NYZ071-072-176-178-NJZ106-104-262000- NEW YORK CITY METRO AREA CITY SKY/WX TMP DP RH WIND PRES REMARKS CENTRAL PARK CLOUDY 25 14 63 N8 29.93F WCI 16 LAGUARDIA APRT CLOUDY 25 16 68 NE10 29.92F WCI 15 KENNEDY INTL PTSUNNY 28 14 55 NE16 29.92F WCI 16 NEWARK/LIBERTY PTSUNNY 24 16 71 N14 29.92F WCI 12 BRNX BOT. GARD N/A N/A N/A N/A NW3 29.92F TETERBORO CLOUDY 23 14 68 N12G17 29.93S WCI 12 $$ NYZ177-179-078>081-262000- LONG ISLAND NEW YORK CITY SKY/WX TMP DP RH WIND PRES REMARKS FARMINGDALE CLOUDY 25 14 63 N16 29.90F WCI 12 ISLIP PTSUNNY 25 13 60 N16G22 29.88F WCI 12 SHIRLEY MOSUNNY 27 9 46 N15G21 29.90F WCI 15 WESTHAMPTON SUNNY 26 12 55 NE17 29.90F WCI 13 MONTAUK POINT N/A 27 19 72 N13G22 29.90F WCI 16 $$ NYZ052-065-067-262000- HUDSON VALLEY CITY SKY/WX TMP DP RH WIND PRES REMARKS WHITE PLAINS PTSUNNY 23 14 68 N10 29.89F WCI 12 NEWBURGH CLOUDY 21 14 73 NE6 29.97F FOG WCI 14 MONTGOMERY FAIR 20 12 71 N10 29.93F WCI 9 POUGHKEEPSIE MOSUNNY 22 11 62 NE8 29.97F WCI 12 ALBANY CLOUDY 18 -4 37 N10 30.03F WCI 6 $$ NJZ001-105-106-008-010-013-015-019>022-104-262000- NEW JERSEY CITY SKY/WX TMP DP RH WIND PRES REMARKS NEWARK/LIBERTY PTSUNNY 24 16 71 N14 29.92F WCI 12 TETERBORO CLOUDY 23 14 68 N12G17 29.93S WCI 12 CALDWELL PTSUNNY 26 14 60 VRB6 29.92F WCI 19 MORRISTOWN PTSUNNY N/A N/A N/A N7 29.93F SOMERVILLE CLOUDY 29 15 56 N8 29.90F WCI 21 SUSSEX CLOUDY 21 11 65 NE9 29.92F WCI 11 ANDOVER N/A 19 11 70 VRB5 29.92F WCI 12 TRENTON CLOUDY 28 15 58 NE10 29.90F WCI 19 MILLVILLE CLOUDY 32 14 47 NE10G22 29.87R WCI 24 ATLANTIC CITY CLOUDY 31 17 56 NE16 29.87R WCI 20 WRIGHTSTOWN CLOUDY 29 13 52 N15 29.88S WCI 17 TOMS RIVER CLOUDY 28 12 50 N14G20 29.89S WCI 17 BELMAR CLOUDY 28 10 47 N13G22 29.89S WCI 18 $$ PAZ047>061-062-071-262000- EASTERN PENNSYLVANIA CITY SKY/WX TMP DP RH WIND PRES REMARKS PHILADELPHIA CLOUDY 32 14 47 N12 29.91S WCI 23 ALLENTOWN CLOUDY 25 14 63 N9 29.93F WCI 15 SCRANTON FLURRIES 23 11 60 NW9 29.91S WCI 13 $$ CTZ002-004>006-009-010-012-RIZ004-006-007-MAZ004-011-015-262000- SOUTHERN NEW ENGLAND IN CT CITY SKY/WX TMP DP RH WIND PRES REMARKS BRADLEY INTL PTSUNNY 22 11 62 N9 29.95F WCI 12 HARTFORD PTSUNNY 21 13 71 NW8 29.97F WCI 11 DANBURY CLOUDY 21 11 65 N10 29.93F WCI 10 WTRBRY/OXFORD MOSUNNY 19 7 58 NE12G17 29.90F WCI 7 BRIDGEPORT CLOUDY 23 16 74 N14 29.94F WCI 11 MERIDEN MOSUNNY 22 12 65 N13 29.94F WCI 10 NEW HAVEN CLOUDY 22 15 75 N13 29.93F WCI 10 CHESTER MOCLDY 23 14 68 N12 29.90F WCI 12 GROTON CLOUDY 23 15 71 N13 29.91F WCI 11 WILLIMANTIC CLOUDY 23 13 65 NE7 29.93F WCI 15 IN RI CITY SKY/WX TMP DP RH WIND PRES REMARKS PROVIDENCE LGT SNOW 21 15 78 N17 29.95F WCI 7 BLOCK ISLAND CLOUDY 25 18 74 NE16G23 29.87F WCI 12 WESTERLY FLURRIES 25 17 72 NE10 29.91F WCI 15 IN MA CITY SKY/WX TMP DP RH WIND PRES REMARKS BOSTON LGT SNOW 21 16 79 NE17 29.98F WCI 7 WORCESTER PTSUNNY 20 11 68 NE8 29.88F WCI 10 WESTFIELD PTSUNNY 20 9 62 N8 29.96F WCI 10 PROVINCETOWN CLOUDY 27 21 80 NE17G24 29.94F VSB 1 WCI 14 NANTUCKET SNOW 30 26 85 N22 29.86F VSB 1/2 WCI 17 $$ ANZ330-335-338-340-345-350-353-355-262000- COASTAL MARINE OBSERVATIONS STATION/POSITION TIME SKY/WX TEMP WIND PRES VSBY WAVE AIR SEA DIR/SP/G HT/PER (UTC) (F) (DEG/KT/KT) (MB) (MI) (FT/S) NY HARB ENTRANCE 1900 26 39 20/ 16/ 19 1012.3 4/ 6 4S FIRE IS NOT AVBL 20S FIRE ISLAND 1800 36 1012.5 6/ 6 23SW MTP 1900 N/A 5/ 6 HUDSON CANYON NOT AVBL EXECUTION ROCKS NOT AVBL WESTERN LI SOUND NOT AVBL CENTRAL LI SOUND NOT AVBL EASTERN LI SOUND NOT AVBL ROBBINS REEF 1900 24 360/ 12/ 14 1011.8 $$ >>>>>>>>>>>>>>>>>>>>>>>>>>>> KEY <<<<<<<<<<<<<<<<<<<<<<<<<<< > < > SKY/WX - SKY CONDITION/PRESENT WEATHER < > TMP - TEMPERATURE IN FAHRENHEIT < > DP - DEWPOINT IN FAHRENHEIT < > RH - RELATIVE HUMIDITY IN PERCENT < > WIND - DIRECTION AND SPEED IN MPH < > PRES - MEAN SEA LEVEL PRESSURE IN INCHES OF HG < > WCI - WIND CHILL INDEX < > VSB - VISIBILITY IN MILES < > HX - HEAT INDEX < > TC - TEMPERATURE IN CELSIUS < > VRB - VARIABLE WIND DIRECTION < > < >>>>>>>>>>>>>>>>>>>>>>>>>>>> KEY <<<<<<<<<<<<<<<<<<<<<<<<<<<

USA.gov is the U.S. government's official web portal to all federal, state and local government web resources and services.